Volver al catálogo

IRIDIUM 33 DEB

ActivoPO
NORAD 40996·DEBRIS·🇺🇸 United States

Lanzado Sep 14, 1997 desde Baikonur Cosmodrome

Loading…

Próximos Pases (próximas 24 horas)

TLE

EnvejeciendoSource: Space-Track

Época: Sep 7, 2026, 17:04 UTC

1 40996U 97051ABJ 26250.71153039  .00055838  00000-0  26352-2 0  9993
2 40996  86.3437 233.2818 0009905 108.7866 251.4452 15.19177188665421

Sigue IRIDIUM 33 DEB en tiempo real con AllMySat

Download on the App Store